Location: Altoona
(40.5167°N, 78.4000°W)
Time: 09:07:42
(UTC-05:00)

Cosmos 2322 - Pass Details

Date: 21 August 2017
Orbit: 839 x 856 km, 71.0° (Epoch: 20 November)

Event Time Altitude Azimuth Distance (km) Brightness Sun altitude
Rises 21:37:56 0° 193° (SSW) 3,377 6.6 -17.3°
Reaches altitude 10° 21:40:22 10° 191° (S) 2,447 5.9 -17.7°
Maximum altitude 21:45:56 67° 110° (ESE) 909 3.6 -18.6°
Drops below altitude 10° 21:51:32 10° 29° (NNE) 2,470 6.2 -19.5°
Sets 21:54:01 0° 27° (NNE) 3,411 7.0 -19.9°
